This is the latest recevied weather packets stored in our database for station/object W4TJP. If no packets are shown the sender has not sent any weather packets the latest 10 day(s).
| Time | Temp. | Humidity | Pressure | Rain* | Wind** | Luminosity | Snow |
|---|---|---|---|---|---|---|---|
| 1777917086 | 24.44° C | 51% | 1013.7 hPa | 0 mm | - | 576 W/m² | - |
| 1777916784 | 24.44° C | 50% | 1013.8 hPa | 0 mm | - | 689 W/m² | - |
| 1777916480 | 23.89° C | 52% | 1013.8 hPa | 0 mm | - | 743 W/m² | - |
| 1777916177 | 24.44° C | 53% | 1013.9 hPa | 0 mm | - | 717 W/m² | - |
| 1777915875 | 23.89° C | 50% | 1013.7 hPa | 0 mm | - | 703 W/m² | - |
| 1777915570 | 23.89° C | 51% | 1014 hPa | 0 mm | - | 714 W/m² | - |
| 1777915268 | 23.89° C | 53% | 1014 hPa | 0 mm | - | 665 W/m² | - |
| 1777914964 | 23.33° C | 54% | 1014.1 hPa | 0 mm | - | 679 W/m² | - |
| 1777914661 | 23.33° C | 50% | 1013.9 hPa | 0 mm | - | 682 W/m² | - |
| 1777914357 | 23.89° C | 51% | 1014.2 hPa | 0 mm | - | 691 W/m² | - |
| 1777914055 | 23.33° C | 52% | 1014 hPa | 0 mm | - | 675 W/m² | - |
| 1777913750 | 23.33° C | 52% | 1014.4 hPa | 0 mm | - | 727 W/m² | - |
| 1777913448 | 22.78° C | 53% | 1014.2 hPa | 0 mm | - | 708 W/m² | - |
| 1777913144 | 22.78° C | 53% | 1014.1 hPa | 0 mm | - | 669 W/m² | - |
| 1777912841 | 22.78° C | 55% | 1014.2 hPa | 0 mm | - | 689 W/m² | - |
| 1777912537 | 22.78° C | 54% | 1014.4 hPa | 0 mm | - | 711 W/m² | - |
| 1777912233 | 22.22° C | 54% | 1014.5 hPa | 0 mm | - | 706 W/m² | - |
| 1777911930 | 22.22° C | 55% | 1014.4 hPa | 0 mm | - | 710 W/m² | - |
| 1777911626 | 21.67° C | 56% | 1014.5 hPa | 0 mm | - | 689 W/m² | - |
| 1777911322 | 21.67° C | 56% | 1014.7 hPa | 0 mm | - | 702 W/m² | - |
| 1777911020 | 21.67° C | 54% | 1014.5 hPa | 0 mm | - | 655 W/m² | - |
| 1777910717 | 21.67° C | 57% | 1014.6 hPa | 0 mm | - | 672 W/m² | - |
| 1777910414 | 21.67° C | 53% | 1014.7 hPa | 0 mm | - | 703 W/m² | - |
| 1777910110 | 21.67° C | 58% | 1014.6 hPa | 0 mm | - | 680 W/m² | - |
| 1777909808 | 21.11° C | 55% | 1014.7 hPa | 0 mm | - | 682 W/m² | - |
* Rain latest hour (hover to see other rain measurements)
** Current wind speed in m/s (hover to see current wind gust speed)